Time,TemperatureF,DewpointF,PressureIn,WindDirection,WindDirectionDegrees,WindSpeedMPH,WindSpeedGustMPH,Humidity,HourlyPrecipIn,Conditions,Clouds,dailyrainin,SoftwareType,DateUTC
2013-08-29 00:00:00,76.1,70.6,29.94,NE,50,0.0,4.0,83,0.00,,,0.00,VWS V14.01,2013-08-29 05:00:00,
2013-08-29 00:05:00,76.1,70.6,29.94,NE,51,0.0,0.0,83,0.00,,,0.00,VWS V14.01,2013-08-29 05:05:00,
2013-08-29 00:10:00,76.0,70.5,29.94,NE,50,0.0,0.0,83,0.00,,,0.00,VWS V14.01,2013-08-29 05:10:00,
2013-08-29 00:15:00,76.0,70.5,29.94,NE,51,0.0,0.0,83,0.00,,,0.00,VWS V14.01,2013-08-29 05:15:00,
2013-08-29 00:20:00,76.0,70.8,29.95,NE,50,0.0,2.0,84,0.00,,,0.00,VWS V14.01,2013-08-29 05:20:00,
2013-08-29 00:25:00,76.0,70.5,29.95,NE,50,0.0,2.0,83,0.00,,,0.00,VWS V14.01,2013-08-29 05:25:00,
2013-08-29 00:30:00,76.0,70.8,29.95,NE,50,0.0,2.0,84,0.00,,,0.00,VWS V14.01,2013-08-29 05:30:00,
2013-08-29 00:35:00,76.0,70.5,29.95,NE,50,0.0,0.0,83,0.00,,,0.00,VWS V14.01,2013-08-29 05:35:00,
2013-08-29 00:40:00,76.0,70.5,29.95,NE,51,0.0,0.0,83,0.00,,,0.00,VWS V14.01,2013-08-29 05:40:00,
2013-08-29 00:45:00,76.0,70.5,29.95,NE,50,0.0,0.0,83,0.00,,,0.00,VWS V14.01,2013-08-29 05:45:00,
2013-08-29 00:50:00,76.0,70.5,29.95,NE,50,0.0,0.0,83,0.00,,,0.00,VWS V14.01,2013-08-29 05:50:00,
2013-08-29 00:56:00,76.0,70.5,29.95,NE,51,0.0,1.0,83,0.00,,,0.00,VWS V14.01,2013-08-29 05:56:00,
2013-08-29 01:00:00,76.0,70.8,29.94,ENE,65,0.0,4.0,84,0.00,,,0.00,VWS V15.00,2013-08-29 06:00:00,
2013-08-29 01:01:00,76.0,70.5,29.94,ENE,62,3.0,3.0,83,0.00,,,0.00,VWS V14.01,2013-08-29 06:01:00,
2013-08-29 01:06:00,76.0,70.8,29.95,ENE,67,0.0,3.0,84,0.00,,,0.00,VWS V14.01,2013-08-29 06:06:00,
2013-08-29 01:11:00,76.0,70.8,29.95,ENE,73,3.0,3.0,84,0.00,,,0.00,VWS V14.01,2013-08-29 06:11:00,
2013-08-29 01:16:00,76.1,70.9,29.94,ENE,73,0.0,3.0,84,0.00,,,0.00,VWS V14.01,2013-08-29 06:16:00,
2013-08-29 01:21:00,76.2,71.0,29.94,East,98,0.0,6.0,84,0.00,,,0.00,VWS V14.01,2013-08-29 06:21:00,
2013-08-29 01:26:00,76.3,71.1,29.95,East,91,0.0,7.0,84,0.00,,,0.00,VWS V14.01,2013-08-29 06:26:00,
2013-08-29 01:31:00,76.4,70.9,29.94,East,95,1.0,7.0,83,0.00,,,0.00,VWS V14.01,2013-08-29 06:31:00,
2013-08-29 01:36:00,76.4,71.2,29.94,East,97,0.0,6.0,84,0.00,,,0.00,VWS V14.01,2013-08-29 06:36:00,
2013-08-29 01:41:00,76.5,71.0,29.94,East,96,1.0,7.0,83,0.00,,,0.00,VWS V14.01,2013-08-29 06:41:00,
2013-08-29 01:46:00,76.5,71.0,29.94,ESE,109,7.0,7.0,83,0.00,,,0.00,VWS V14.01,2013-08-29 06:46:00,
2013-08-29 01:51:00,76.5,71.0,29.93,East,100,0.0,7.0,83,0.00,,,0.00,VWS V14.01,2013-08-29 06:51:00,
2013-08-29 01:56:00,76.5,71.0,29.93,ESE,123,0.0,7.0,83,0.00,,,0.00,VWS V14.01,2013-08-29 06:56:00,
2013-08-29 02:00:00,76.5,71.0,29.94,ESE,122,0.0,7.0,83,0.00,,,0.00,VWS V15.00,2013-08-29 07:00:00,
2013-08-29 02:01:00,76.5,71.0,29.94,ESE,122,0.0,0.0,83,0.00,,,0.00,VWS V14.01,2013-08-29 07:01:00,
2013-08-29 02:06:00,76.4,70.9,29.94,SE,124,3.0,4.0,83,0.00,,,0.00,VWS V14.01,2013-08-29 07:06:00,
2013-08-29 02:11:00,76.4,70.9,29.94,ESE,121,5.0,6.0,83,0.00,,,0.00,VWS V14.01,2013-08-29 07:11:00,
2013-08-29 02:16:00,76.3,70.8,29.93,ESE,115,0.0,6.0,83,0.00,,,0.00,VWS V14.01,2013-08-29 07:16:00,
2013-08-29 02:21:00,76.3,71.1,29.93,ESE,108,0.0,6.0,84,0.00,,,0.00,VWS V14.01,2013-08-29 07:21:00,
2013-08-29 02:26:00,76.2,71.0,29.93,ESE,107,0.0,6.0,84,0.00,,,0.00,VWS V14.01,2013-08-29 07:26:00,
2013-08-29 02:31:00,76.2,71.0,29.93,ESE,106,0.0,4.0,84,0.00,,,0.00,VWS V14.01,2013-08-29 07:31:00,
2013-08-29 02:36:00,76.2,71.0,29.93,ESE,106,0.0,4.0,84,0.00,,,0.00,VWS V14.01,2013-08-29 07:36:00,
2013-08-29 02:41:00,76.3,71.1,29.93,ESE,115,7.0,7.0,84,0.00,,,0.00,VWS V14.01,2013-08-29 07:41:00,
2013-08-29 02:46:00,76.4,71.2,29.93,ESE,117,1.0,12.0,84,0.00,,,0.00,VWS V14.01,2013-08-29 07:46:00,
2013-08-29 02:51:00,76.5,71.3,29.93,ESE,111,5.0,12.0,84,0.00,,,0.00,VWS V14.01,2013-08-29 07:51:00,
2013-08-29 02:56:00,76.7,71.5,29.93,ESE,117,0.0,12.0,84,0.00,,,0.00,VWS V14.01,2013-08-29 07:56:00,
2013-08-29 03:00:00,76.7,71.5,29.93,ESE,108,0.0,12.0,84,0.00,,,0.00,VWS V15.00,2013-08-29 08:00:00,
2013-08-29 03:01:00,76.8,71.6,29.93,ESE,108,0.0,0.0,84,0.00,,,0.00,VWS V14.01,2013-08-29 08:01:00,
2013-08-29 03:06:00,76.8,71.6,29.93,SE,125,3.0,6.0,84,0.00,,,0.00,VWS V14.01,2013-08-29 08:06:00,
2013-08-29 03:11:00,76.8,71.6,29.93,SE,127,5.0,6.0,84,0.00,,,0.00,VWS V14.01,2013-08-29 08:11:00,
2013-08-29 03:17:00,76.8,71.6,29.92,SE,139,0.0,7.0,84,0.00,,,0.00,VWS V14.01,2013-08-29 08:17:00,
2013-08-29 03:22:00,76.8,71.6,29.93,SE,137,1.0,7.0,84,0.00,,,0.00,VWS V14.01,2013-08-29 08:22:00,
2013-08-29 03:27:00,76.7,71.5,29.93,ESE,118,0.0,7.0,84,0.00,,,0.00,VWS V14.01,2013-08-29 08:27:00,
2013-08-29 03:32:00,76.7,71.5,29.93,SE,128,0.0,0.0,84,0.00,,,0.00,VWS V14.01,2013-08-29 08:32:00,
2013-08-29 03:37:00,76.6,71.4,29.93,SE,131,0.0,6.0,84,0.00,,,0.00,VWS V14.01,2013-08-29 08:37:00,
2013-08-29 03:42:00,76.5,71.3,29.93,ESE,118,0.0,7.0,84,0.00,,,0.00,VWS V14.01,2013-08-29 08:42:00,
2013-08-29 03:47:00,76.5,71.3,29.93,ESE,113,0.0,7.0,84,0.00,,,0.00,VWS V14.01,2013-08-29 08:47:00,
2013-08-29 03:52:00,76.4,71.6,29.93,SE,130,0.0,7.0,85,0.00,,,0.00,VWS V14.01,2013-08-29 08:52:00,
2013-08-29 03:57:00,76.4,71.6,29.93,SE,136,5.0,7.0,85,0.00,,,0.00,VWS V14.01,2013-08-29 08:57:00,
2013-08-29 04:02:00,76.4,71.6,29.93,SE,136,2.0,4.0,85,0.00,,,0.00,VWS V14.01,2013-08-29 09:02:00,
2013-08-29 04:07:00,76.4,71.6,29.93,SE,139,0.0,4.0,85,0.00,,,0.00,VWS V14.01,2013-08-29 09:07:00,
2013-08-29 04:12:00,76.4,71.6,29.92,SE,134,0.0,4.0,85,0.00,,,0.00,VWS V14.01,2013-08-29 09:12:00,
2013-08-29 04:17:00,76.3,71.5,29.92,SE,132,0.0,4.0,85,0.00,,,0.00,VWS V14.01,2013-08-29 09:17:00,
2013-08-29 04:22:00,76.3,71.5,29.91,SE,134,0.0,5.0,85,0.00,,,0.00,VWS V14.01,2013-08-29 09:22:00,
2013-08-29 04:27:00,76.2,71.4,29.91,ESE,110,0.0,6.0,85,0.00,,,0.00,VWS V14.01,2013-08-29 09:27:00,
2013-08-29 04:30:00,76.1,71.3,29.91,ESE,112,3.0,6.0,85,0.00,,,0.00,VWS V15.00,2013-08-29 09:30:00,
2013-08-29 04:32:00,76.1,71.3,29.91,ESE,121,0.0,5.0,85,0.00,,,0.00,VWS V14.01,2013-08-29 09:32:00,
2013-08-29 04:37:00,76.0,71.5,29.91,ESE,121,0.0,7.0,86,0.00,,,0.00,VWS V14.01,2013-08-29 09:37:00,
2013-08-29 04:42:00,75.9,71.4,29.90,ESE,121,0.0,7.0,86,0.00,,,0.00,VWS V14.01,2013-08-29 09:42:00,
2013-08-29 04:47:00,75.9,71.4,29.90,SE,133,0.0,7.0,86,0.00,,,0.00,VWS V14.01,2013-08-29 09:47:00,
2013-08-29 04:52:00,75.9,71.4,29.90,SE,130,0.0,7.0,86,0.00,,,0.00,VWS V14.01,2013-08-29 09:52:00,
2013-08-29 04:57:00,76.0,71.9,29.90,SE,124,0.0,7.0,87,0.00,,,0.00,VWS V14.01,2013-08-29 09:57:00,
2013-08-29 05:02:00,76.0,71.9,29.91,ESE,102,4.0,7.0,87,0.00,,,0.00,VWS V14.01,2013-08-29 10:02:00,
2013-08-29 05:07:00,76.0,71.9,29.91,ESE,102,0.0,7.0,87,0.00,,,0.00,VWS V14.01,2013-08-29 10:07:00,
2013-08-29 05:12:00,76.1,71.9,29.91,East,100,0.0,7.0,87,0.00,,,0.00,VWS V14.01,2013-08-29 10:12:00,
2013-08-29 05:17:00,76.1,71.9,29.91,East,101,0.0,7.0,87,0.00,,,0.00,VWS V14.01,2013-08-29 10:17:00,
2013-08-29 05:22:00,75.9,71.8,29.92,East,101,0.0,7.0,87,0.00,,,0.00,VWS V14.01,2013-08-29 10:22:00,
2013-08-29 05:27:00,75.8,71.7,29.92,East,97,0.0,7.0,87,0.00,,,0.00,VWS V14.01,2013-08-29 10:27:00,
2013-08-29 05:32:00,75.7,71.6,29.92,East,96,3.0,5.0,87,0.00,,,0.00,VWS V14.01,2013-08-29 10:32:00,
2013-08-29 05:38:00,75.6,71.5,29.92,East,94,5.0,6.0,87,0.00,,,0.00,VWS V14.01,2013-08-29 10:38:00,
2013-08-29 05:43:00,75.5,71.4,29.92,East,92,5.0,6.0,87,0.00,,,0.00,VWS V14.01,2013-08-29 10:43:00,
2013-08-29 05:48:00,75.5,71.4,29.92,East,89,0.0,7.0,87,0.00,,,0.00,VWS V14.01,2013-08-29 10:48:00,
2013-08-29 05:53:00,75.5,71.7,29.92,East,100,2.0,7.0,88,0.00,,,0.00,VWS V14.01,2013-08-29 10:53:00,
2013-08-29 05:58:00,75.5,71.7,29.92,ESE,104,0.0,7.0,88,0.00,,,0.00,VWS V14.01,2013-08-29 10:58:00,
2013-08-29 06:00:00,75.5,71.7,29.92,East,96,2.0,7.0,88,0.00,,,0.00,VWS V15.00,2013-08-29 11:00:00,
2013-08-29 06:03:00,75.5,71.7,29.92,East,96,0.0,3.0,88,0.00,,,0.00,VWS V14.01,2013-08-29 11:03:00,
2013-08-29 06:08:00,75.5,71.7,29.92,ESE,108,0.0,7.0,88,0.00,,,0.00,VWS V14.01,2013-08-29 11:08:00,
2013-08-29 06:13:00,75.5,71.7,29.92,ESE,108,0.0,7.0,88,0.00,,,0.00,VWS V14.01,2013-08-29 11:13:00,
2013-08-29 06:18:00,75.5,71.7,29.93,ESE,108,0.0,7.0,88,0.00,,,0.00,VWS V14.01,2013-08-29 11:18:00,
2013-08-29 06:23:00,75.5,71.7,29.93,ESE,108,0.0,7.0,88,0.00,,,0.00,VWS V14.01,2013-08-29 11:23:00,
2013-08-29 06:28:00,75.4,71.6,29.93,ESE,107,0.0,7.0,88,0.00,,,0.00,VWS V14.01,2013-08-29 11:28:00,
2013-08-29 06:33:00,75.5,71.7,29.93,ESE,107,0.0,0.0,88,0.00,,,0.00,VWS V14.01,2013-08-29 11:33:00,
2013-08-29 06:38:00,75.4,71.6,29.93,ESE,108,0.0,1.0,88,0.00,,,0.00,VWS V14.01,2013-08-29 11:38:00,
2013-08-29 06:43:00,75.4,71.6,29.93,ESE,107,0.0,5.0,88,0.00,,,0.00,VWS V14.01,2013-08-29 11:43:00,
2013-08-29 06:48:00,75.4,71.6,29.92,ESE,107,0.0,5.0,88,0.00,,,0.00,VWS V14.01,2013-08-29 11:48:00,
2013-08-29 06:53:00,75.3,71.5,29.93,ESE,108,0.0,5.0,88,0.00,,,0.00,VWS V14.01,2013-08-29 11:53:00,
2013-08-29 06:58:00,75.4,71.6,29.93,ESE,107,2.0,5.0,88,0.00,,,0.00,VWS V14.01,2013-08-29 11:58:00,
2013-08-29 07:03:00,75.4,71.6,29.93,ESE,108,0.0,0.0,88,0.00,,,0.00,VWS V14.01,2013-08-29 12:03:00,
2013-08-29 07:08:00,75.5,71.7,29.92,ESE,107,0.0,0.0,88,0.00,,,0.00,VWS V14.01,2013-08-29 12:08:00,
2013-08-29 07:13:00,75.4,71.6,29.92,ESE,108,0.0,5.0,88,0.00,,,0.00,VWS V14.01,2013-08-29 12:13:00,
2013-08-29 07:18:00,75.5,71.7,29.92,ESE,114,0.0,5.0,88,0.00,,,0.00,VWS V14.01,2013-08-29 12:18:00,
2013-08-29 07:23:00,75.5,71.7,29.92,ESE,114,0.0,5.0,88,0.00,,,0.00,VWS V14.01,2013-08-29 12:23:00,
2013-08-29 07:28:00,75.6,71.8,29.92,ESE,114,0.0,5.0,88,0.00,,,0.00,VWS V14.01,2013-08-29 12:28:00,
2013-08-29 07:30:00,75.6,71.8,29.92,ESE,114,3.0,5.0,88,0.00,,,0.00,VWS V15.00,2013-08-29 12:30:00,
2013-08-29 07:33:00,75.7,71.9,29.92,ESE,114,3.0,4.0,88,0.00,,,0.00,VWS V14.01,2013-08-29 12:33:00,
2013-08-29 07:38:00,75.8,72.0,29.93,ESE,105,2.0,6.0,88,0.00,,,0.00,VWS V14.01,2013-08-29 12:38:00,
2013-08-29 07:43:00,76.0,72.2,29.92,ESE,118,1.0,9.0,88,0.00,,,0.00,VWS V14.01,2013-08-29 12:43:00,
2013-08-29 07:48:00,76.1,72.3,29.92,ESE,112,4.0,9.0,88,0.00,,,0.00,VWS V14.01,2013-08-29 12:48:00,
2013-08-29 07:53:00,76.3,72.5,29.92,ESE,121,5.0,9.0,88,0.00,,,0.00,VWS V14.01,2013-08-29 12:53:00,
2013-08-29 07:59:00,76.6,72.8,29.92,SE,125,0.0,9.0,88,0.00,,,0.00,VWS V14.01,2013-08-29 12:59:00,
2013-08-29 08:04:00,77.0,72.8,29.92,SE,132,0.0,7.0,87,0.00,,,0.00,VWS V14.01,2013-08-29 13:04:00,
2013-08-29 08:09:00,77.4,72.9,29.92,ESE,112,5.0,10.0,86,0.00,,,0.00,VWS V14.01,2013-08-29 13:09:00,
2013-08-29 08:14:00,77.8,72.9,29.91,SE,131,4.0,10.0,85,0.00,,,0.00,VWS V14.01,2013-08-29 13:14:00,
2013-08-29 08:19:00,78.2,73.0,29.91,SE,139,6.0,10.0,84,0.00,,,0.00,VWS V14.01,2013-08-29 13:19:00,
2013-08-29 08:24:00,78.7,73.1,29.91,South,173,0.0,12.0,83,0.00,,,0.00,VWS V14.01,2013-08-29 13:24:00,
2013-08-29 08:29:00,79.0,73.4,29.91,SE,133,4.0,12.0,83,0.00,,,0.00,VWS V14.01,2013-08-29 13:29:00,
2013-08-29 08:30:00,79.1,73.5,29.91,SE,146,2.0,12.0,83,0.00,,,0.00,VWS V15.00,2013-08-29 13:30:00,
2013-08-29 08:34:00,79.4,73.4,29.91,SSE,148,0.0,6.0,82,0.00,,,0.00,VWS V14.01,2013-08-29 13:34:00,
2013-08-29 08:39:00,79.7,73.4,29.91,SSE,165,0.0,10.0,81,0.00,,,0.00,VWS V14.01,2013-08-29 13:39:00,
2013-08-29 08:44:00,80.1,73.8,29.91,SE,127,0.0,10.0,81,0.00,,,0.00,VWS V14.01,2013-08-29 13:44:00,
2013-08-29 08:49:00,80.7,74.0,29.91,SSE,167,6.0,10.0,80,0.00,,,0.00,VWS V14.01,2013-08-29 13:49:00,
2013-08-29 08:54:00,81.1,74.0,29.91,SSE,158,0.0,10.0,79,0.00,,,0.00,VWS V14.01,2013-08-29 13:54:00,
2013-08-29 08:59:00,81.6,74.1,29.91,South,176,2.0,10.0,78,0.00,,,0.00,VWS V14.01,2013-08-29 13:59:00,
2013-08-29 09:04:00,82.0,74.1,29.91,SSE,158,0.0,7.0,77,0.00,,,0.00,VWS V14.01,2013-08-29 14:04:00,
2013-08-29 09:09:00,82.5,74.6,29.91,ESE,119,2.0,9.0,77,0.00,,,0.00,VWS V14.01,2013-08-29 14:09:00,
2013-08-29 09:14:00,82.9,74.6,29.91,SE,128,0.0,9.0,76,0.00,,,0.00,VWS V14.01,2013-08-29 14:14:00,
2013-08-29 09:19:00,83.3,74.9,29.91,ESE,119,0.0,9.0,76,0.00,,,0.00,VWS V14.01,2013-08-29 14:19:00,
2013-08-29 09:24:00,83.7,74.5,29.90,SE,124,4.0,11.0,74,0.00,,,0.00,VWS V14.01,2013-08-29 14:24:00,
2013-08-29 09:29:00,83.9,74.7,29.90,ESE,118,3.0,11.0,74,0.00,,,0.00,VWS V14.01,2013-08-29 14:29:00,
2013-08-29 09:34:00,84.1,74.5,29.91,ESE,115,4.0,9.0,73,0.00,,,0.00,VWS V14.01,2013-08-29 14:34:00,
2013-08-29 09:39:00,84.3,74.7,29.90,South,181,0.0,10.0,73,0.00,,,0.00,VWS V14.01,2013-08-29 14:39:00,
2013-08-29 09:44:00,84.7,74.7,29.90,ESE,108,1.0,10.0,72,0.00,,,0.00,VWS V14.01,2013-08-29 14:44:00,
2013-08-29 09:49:00,85.0,75.0,29.90,ESE,118,6.0,10.0,72,0.00,,,0.00,VWS V14.01,2013-08-29 14:49:00,
2013-08-29 09:55:00,85.5,75.0,29.90,SE,142,7.0,10.0,71,0.00,,,0.00,VWS V14.01,2013-08-29 14:55:00,
2013-08-29 10:00:00,85.9,75.4,29.90,SSE,154,0.0,10.0,71,0.00,,,0.00,VWS V14.01,2013-08-29 15:00:00,
2013-08-29 10:05:00,86.1,75.2,29.91,ESE,117,1.0,10.0,70,0.00,,,0.00,VWS V14.01,2013-08-29 15:05:00,
2013-08-29 10:10:00,86.3,75.4,29.91,ESE,114,4.0,10.0,70,0.00,,,0.00,VWS V14.01,2013-08-29 15:10:00,
2013-08-29 10:15:00,86.4,75.5,29.90,SSE,152,4.0,10.0,70,0.00,,,0.00,VWS V14.01,2013-08-29 15:15:00,
2013-08-29 10:20:00,86.7,75.8,29.90,ESE,116,3.0,10.0,70,0.00,,,0.00,VWS V14.01,2013-08-29 15:20:00,
2013-08-29 10:25:00,87.0,76.0,29.91,SSE,160,0.0,10.0,70,0.00,,,0.00,VWS V14.01,2013-08-29 15:25:00,
2013-08-29 10:30:00,87.2,75.4,29.90,East,97,3.0,10.0,68,0.00,,,0.00,VWS V14.01,2013-08-29 15:30:00,
2013-08-29 10:35:00,87.5,76.1,29.90,ESE,112,5.0,5.0,69,0.00,,,0.00,VWS V14.01,2013-08-29 15:35:00,
2013-08-29 10:40:00,87.5,75.6,29.90,ESE,118,6.0,12.0,68,0.00,,,0.00,VWS V14.01,2013-08-29 15:40:00,
2013-08-29 10:45:00,87.6,76.2,29.90,ESE,119,4.0,12.0,69,0.00,,,0.00,VWS V14.01,2013-08-29 15:45:00,
2013-08-29 10:50:00,87.8,76.8,29.90,SSE,160,3.0,12.0,70,0.00,,,0.00,VWS V14.01,2013-08-29 15:50:00,
2013-08-29 10:55:00,87.8,75.9,29.90,South,174,4.0,12.0,68,0.00,,,0.00,VWS V14.01,2013-08-29 15:55:00,
2013-08-29 11:00:00,87.6,75.7,29.90,South,179,0.0,12.0,68,0.00,,,0.00,VWS V14.01,2013-08-29 16:00:00,
2013-08-29 11:05:00,87.5,76.1,29.90,South,174,3.0,7.0,69,0.00,,,0.00,VWS V14.01,2013-08-29 16:05:00,
2013-08-29 11:10:00,87.6,76.2,29.90,SE,129,6.0,9.0,69,0.00,,,0.00,VWS V14.01,2013-08-29 16:10:00,
2013-08-29 11:15:00,87.8,76.4,29.90,South,173,4.0,9.0,69,0.00,,,0.00,VWS V14.01,2013-08-29 16:15:00,
2013-08-29 11:20:00,88.2,76.8,29.90,SE,129,4.0,9.0,69,0.00,,,0.00,VWS V14.01,2013-08-29 16:20:00,
2013-08-29 11:25:00,88.7,76.8,29.90,SE,130,4.0,10.0,68,0.00,,,0.00,VWS V14.01,2013-08-29 16:25:00,
2013-08-29 11:30:00,89.2,76.8,29.90,SE,133,4.0,10.0,67,0.00,,,0.00,VWS V14.01,2013-08-29 16:30:00,
2013-08-29 11:35:00,89.9,77.0,29.90,SSE,164,1.0,7.0,66,0.00,,,0.00,VWS V14.01,2013-08-29 16:35:00,
2013-08-29 11:40:00,89.8,76.5,29.90,South,186,7.0,10.0,65,0.00,,,0.00,VWS V14.01,2013-08-29 16:40:00,
2013-08-29 11:45:00,90.0,77.1,29.90,South,179,5.0,10.0,66,0.00,,,0.00,VWS V14.01,2013-08-29 16:45:00,
2013-08-29 11:50:00,90.3,77.4,29.90,SE,140,10.0,10.0,66,0.00,,,0.00,VWS V14.01,2013-08-29 16:50:00,
2013-08-29 11:56:00,90.7,76.8,29.89,ESE,110,2.0,10.0,64,0.00,,,0.00,VWS V14.01,2013-08-29 16:56:00,
2013-08-29 12:00:00,90.8,77.4,29.89,South,184,10.0,11.0,65,0.00,,,0.00,VWS V15.00,2013-08-29 17:00:00,
2013-08-29 12:01:00,90.8,77.4,29.89,SSE,164,6.0,11.0,65,0.00,,,0.00,VWS V14.01,2013-08-29 17:01:00,
2013-08-29 12:06:00,90.5,76.7,29.89,SE,140,5.0,13.0,64,0.00,,,0.00,VWS V14.01,2013-08-29 17:06:00,
2013-08-29 12:11:00,90.5,76.7,29.89,SE,125,5.0,15.0,64,0.00,,,0.00,VWS V14.01,2013-08-29 17:11:00,
2013-08-29 12:16:00,90.7,76.8,29.89,SSE,157,0.0,15.0,64,0.00,,,0.00,VWS V14.01,2013-08-29 17:16:00,
2013-08-29 12:21:00,90.8,76.5,29.89,SSE,155,6.0,15.0,63,0.00,,,0.00,VWS V14.01,2013-08-29 17:21:00,
2013-08-29 12:26:00,90.8,76.0,29.89,SE,127,7.0,15.0,62,0.00,,,0.00,VWS V14.01,2013-08-29 17:26:00,
2013-08-29 12:31:00,90.7,75.9,29.89,ESE,118,10.0,15.0,62,0.00,,,0.00,VWS V14.01,2013-08-29 17:31:00,
2013-08-29 12:36:00,90.5,75.2,29.89,SE,125,3.0,13.0,61,0.00,,,0.00,VWS V14.01,2013-08-29 17:36:00,
2013-08-29 12:41:00,90.3,74.0,29.89,ESE,110,3.0,13.0,59,0.00,,,0.00,VWS V14.01,2013-08-29 17:41:00,
2013-08-29 12:46:00,90.2,74.4,29.89,ESE,122,5.0,13.0,60,0.00,,,0.00,VWS V14.01,2013-08-29 17:46:00,
2013-08-29 12:51:00,90.0,74.8,29.89,SSE,167,10.0,13.0,61,0.00,,,0.00,VWS V14.01,2013-08-29 17:51:00,
2013-08-29 12:56:00,89.7,74.0,29.88,ESE,110,3.0,13.0,60,0.00,,,0.00,VWS V14.01,2013-08-29 17:56:00,
2013-08-29 13:01:00,89.5,73.8,29.88,ESE,121,4.0,4.0,60,0.00,,,0.00,VWS V14.01,2013-08-29 18:01:00,
2013-08-29 13:06:00,89.5,74.3,29.88,SSE,150,0.0,10.0,61,0.00,,,0.00,VWS V14.01,2013-08-29 18:06:00,
2013-08-29 13:11:00,89.4,74.2,29.88,South,170,3.0,10.0,61,0.00,,,0.00,VWS V14.01,2013-08-29 18:11:00,
2013-08-29 13:16:00,89.2,73.5,29.88,South,172,9.0,10.0,60,0.00,,,0.00,VWS V14.01,2013-08-29 18:16:00,
2013-08-29 13:21:00,89.1,73.9,29.88,SSE,160,5.0,11.0,61,0.00,,,0.00,VWS V14.01,2013-08-29 18:21:00,
2013-08-29 13:26:00,89.4,74.7,29.88,SE,137,3.0,11.0,62,0.00,,,0.00,VWS V14.01,2013-08-29 18:26:00,
2013-08-29 13:30:00,89.9,74.2,29.87,SSE,166,4.0,11.0,60,0.00,,,0.00,VWS V15.00,2013-08-29 18:30:00,
2013-08-29 13:31:00,89.9,74.2,29.87,South,170,7.0,7.0,60,0.00,,,0.00,VWS V14.01,2013-08-29 18:31:00,
2013-08-29 13:36:00,90.2,73.9,29.87,SSE,156,0.0,11.0,59,0.00,,,0.00,VWS V14.01,2013-08-29 18:36:00,
2013-08-29 13:41:00,90.3,74.5,29.87,ESE,113,4.0,11.0,60,0.00,,,0.00,VWS V14.01,2013-08-29 18:41:00,
2013-08-29 13:46:00,90.4,74.1,29.87,ESE,119,4.0,11.0,59,0.00,,,0.00,VWS V14.01,2013-08-29 18:46:00,
2013-08-29 13:51:00,90.6,74.8,29.87,SSE,153,0.0,11.0,60,0.00,,,0.00,VWS V14.01,2013-08-29 18:51:00,
2013-08-29 13:56:00,90.8,74.5,29.86,South,180,6.0,11.0,59,0.00,,,0.00,VWS V14.01,2013-08-29 18:56:00,
2013-08-29 14:01:00,91.0,73.1,29.86,South,171,2.0,6.0,56,0.00,,,0.00,VWS V14.01,2013-08-29 19:01:00,
2013-08-29 14:07:00,91.0,73.7,29.86,South,184,0.0,15.0,57,0.00,,,0.00,VWS V14.01,2013-08-29 19:07:00,
2013-08-29 14:12:00,91.1,73.2,29.86,South,175,5.0,15.0,56,0.00,,,0.00,VWS V14.01,2013-08-29 19:12:00,
2013-08-29 14:17:00,91.1,73.2,29.85,SSE,153,2.0,15.0,56,0.00,,,0.00,VWS V14.01,2013-08-29 19:17:00,
2013-08-29 14:22:00,91.0,73.7,29.85,South,177,6.0,15.0,57,0.00,,,0.00,VWS V14.01,2013-08-29 19:22:00,
2013-08-29 14:27:00,90.8,73.5,29.85,South,173,6.0,15.0,57,0.00,,,0.00,VWS V14.01,2013-08-29 19:27:00,
2013-08-29 14:32:00,90.8,74.5,29.85,SE,126,2.0,7.0,59,0.00,,,0.00,VWS V14.01,2013-08-29 19:32:00,
2013-08-29 14:37:00,90.8,74.0,29.85,South,186,4.0,11.0,58,0.00,,,0.00,VWS V14.01,2013-08-29 19:37:00,
2013-08-29 14:42:00,91.0,73.7,29.84,ESE,122,5.0,11.0,57,0.00,,,0.00,VWS V14.01,2013-08-29 19:42:00,
2013-08-29 14:47:00,91.3,74.5,29.84,ESE,119,0.0,11.0,58,0.00,,,0.00,VWS V14.01,2013-08-29 19:47:00,
2013-08-29 14:52:00,91.5,73.6,29.84,SSE,162,5.0,11.0,56,0.00,,,0.00,VWS V14.01,2013-08-29 19:52:00,
2013-08-29 14:57:00,91.4,74.0,29.84,ESE,121,3.0,11.0,57,0.00,,,0.00,VWS V14.01,2013-08-29 19:57:00,
2013-08-29 15:02:00,91.2,73.8,29.83,SSE,154,2.0,5.0,57,0.00,,,0.00,VWS V14.01,2013-08-29 20:02:00,
2013-08-29 15:07:00,91.0,73.7,29.83,SSE,150,1.0,9.0,57,0.00,,,0.00,VWS V14.01,2013-08-29 20:07:00,
2013-08-29 15:12:00,90.8,74.0,29.83,ESE,121,1.0,9.0,58,0.00,,,0.00,VWS V14.01,2013-08-29 20:12:00,
2013-08-29 15:17:00,90.7,74.4,29.83,SE,128,0.0,9.0,59,0.00,,,0.00,VWS V14.01,2013-08-29 20:17:00,
2013-08-29 15:22:00,90.5,75.2,29.82,SE,125,0.0,9.0,61,0.00,,,0.00,VWS V14.01,2013-08-29 20:22:00,
2013-08-29 15:27:00,90.4,74.6,29.82,SE,131,5.0,9.0,60,0.00,,,0.00,VWS V14.01,2013-08-29 20:27:00,
2013-08-29 15:30:00,90.3,74.5,29.82,SE,140,4.0,9.0,60,0.00,,,0.00,VWS V15.00,2013-08-29 20:30:00,
2013-08-29 15:32:00,90.3,74.5,29.82,SSE,150,7.0,12.0,60,0.00,,,0.00,VWS V14.01,2013-08-29 20:32:00,
2013-08-29 15:37:00,90.1,73.8,29.82,SE,139,7.0,12.0,59,0.00,,,0.00,VWS V14.01,2013-08-29 20:37:00,
2013-08-29 15:42:00,89.9,74.7,29.82,SSE,156,4.0,12.0,61,0.00,,,0.00,VWS V14.01,2013-08-29 20:42:00,
2013-08-29 15:47:00,89.7,74.0,29.81,South,169,3.0,12.0,60,0.00,,,0.00,VWS V14.01,2013-08-29 20:47:00,
2013-08-29 15:52:00,89.5,74.3,29.81,South,170,3.0,12.0,61,0.00,,,0.00,VWS V14.01,2013-08-29 20:52:00,
2013-08-29 15:57:00,89.3,74.6,29.81,SSE,151,1.0,12.0,62,0.00,,,0.00,VWS V14.01,2013-08-29 20:57:00,
2013-08-29 16:02:00,89.1,74.4,29.81,SE,136,3.0,9.0,62,0.00,,,0.00,VWS V14.01,2013-08-29 21:02:00,
2013-08-29 16:07:00,88.9,74.2,29.81,SE,138,2.0,9.0,62,0.00,,,0.00,VWS V14.01,2013-08-29 21:07:00,
2013-08-29 16:12:00,88.7,74.0,29.81,SE,146,1.0,9.0,62,0.00,,,0.00,VWS V14.01,2013-08-29 21:12:00,
2013-08-29 16:17:00,88.6,73.9,29.81,South,169,6.0,10.0,62,0.00,,,0.00,VWS V14.01,2013-08-29 21:17:00,
2013-08-29 16:23:00,88.6,74.4,29.81,SSE,164,1.0,10.0,63,0.00,,,0.00,VWS V14.01,2013-08-29 21:23:00,
2013-08-29 16:28:00,88.8,74.6,29.81,SSW,194,7.0,10.0,63,0.00,,,0.00,VWS V14.01,2013-08-29 21:28:00,
2013-08-29 16:33:00,88.9,74.2,29.81,SSW,192,9.0,13.0,62,0.00,,,0.00,VWS V14.01,2013-08-29 21:33:00,
2013-08-29 16:38:00,89.1,74.4,29.81,South,181,4.0,13.0,62,0.00,,,0.00,VWS V14.01,2013-08-29 21:38:00,
2013-08-29 16:43:00,89.3,74.6,29.82,South,181,7.0,13.0,62,0.00,,,0.00,VWS V14.01,2013-08-29 21:43:00,
2013-08-29 16:48:00,89.3,74.1,29.81,SSE,164,3.0,13.0,61,0.00,,,0.00,VWS V14.01,2013-08-29 21:48:00,
2013-08-29 16:53:00,89.2,74.0,29.81,South,179,6.0,13.0,61,0.00,,,0.00,VWS V14.01,2013-08-29 21:53:00,
2013-08-29 16:58:00,89.0,73.8,29.81,South,185,6.0,13.0,61,0.00,,,0.00,VWS V14.01,2013-08-29 21:58:00,
2013-08-29 17:03:00,88.8,74.6,29.81,South,176,5.0,7.0,63,0.00,,,0.00,VWS V14.01,2013-08-29 22:03:00,
2013-08-29 17:08:00,88.5,73.3,29.81,SE,127,4.0,11.0,61,0.00,,,0.00,VWS V14.01,2013-08-29 22:08:00,
2013-08-29 17:13:00,88.3,73.2,29.81,SSE,153,1.0,11.0,61,0.00,,,0.00,VWS V14.01,2013-08-29 22:13:00,
2013-08-29 17:18:00,88.1,73.4,29.80,SSE,156,0.0,12.0,62,0.00,,,0.00,VWS V14.01,2013-08-29 22:18:00,
2013-08-29 17:23:00,88.0,73.8,29.81,SSE,160,2.0,12.0,63,0.00,,,0.00,VWS V14.01,2013-08-29 22:23:00,
2013-08-29 17:28:00,88.0,73.8,29.81,SSE,157,0.0,12.0,63,0.00,,,0.00,VWS V14.01,2013-08-29 22:28:00,
2013-08-29 17:30:00,88.1,73.9,29.81,South,179,6.0,12.0,63,0.00,,,0.00,VWS V15.00,2013-08-29 22:30:00,
2013-08-29 17:33:00,88.2,74.0,29.81,South,179,2.0,7.0,63,0.00,,,0.00,VWS V14.01,2013-08-29 22:33:00,
2013-08-29 17:38:00,88.5,73.8,29.81,SE,146,1.0,7.0,62,0.00,,,0.00,VWS V14.01,2013-08-29 22:38:00,
2013-08-29 17:43:00,88.7,73.5,29.81,SSE,152,3.0,11.0,61,0.00,,,0.00,VWS V14.01,2013-08-29 22:43:00,
2013-08-29 17:48:00,88.7,73.5,29.81,SE,144,0.0,11.0,61,0.00,,,0.00,VWS V14.01,2013-08-29 22:48:00,
2013-08-29 17:53:00,88.5,73.3,29.81,SSE,164,3.0,11.0,61,0.00,,,0.00,VWS V14.01,2013-08-29 22:53:00,
2013-08-29 17:58:00,88.1,73.0,29.81,SSE,166,4.0,11.0,61,0.00,,,0.00,VWS V14.01,2013-08-29 22:58:00,
2013-08-29 18:00:00,87.9,73.3,29.81,South,174,5.0,11.0,62,0.00,,,0.00,VWS V15.00,2013-08-29 23:00:00,
2013-08-29 18:03:00,87.7,72.6,29.81,South,175,2.0,5.0,61,0.00,,,0.00,VWS V14.01,2013-08-29 23:03:00,
2013-08-29 18:08:00,87.4,73.7,29.81,South,174,0.0,5.0,64,0.00,,,0.00,VWS V14.01,2013-08-29 23:08:00,
2013-08-29 18:13:00,87.2,74.0,29.81,South,175,0.0,5.0,65,0.00,,,0.00,VWS V14.01,2013-08-29 23:13:00,
2013-08-29 18:18:00,86.9,73.7,29.82,South,175,0.0,5.0,65,0.00,,,0.00,VWS V14.01,2013-08-29 23:18:00,
2013-08-29 18:23:00,86.7,74.4,29.82,South,175,0.0,5.0,67,0.00,,,0.00,VWS V14.01,2013-08-29 23:23:00,
2013-08-29 18:28:00,86.5,73.8,29.82,South,175,0.0,5.0,66,0.00,,,0.00,VWS V14.01,2013-08-29 23:28:00,
2013-08-29 18:30:00,86.4,73.7,29.82,South,175,0.0,5.0,66,0.00,,,0.00,VWS V15.00,2013-08-29 23:30:00,
2013-08-29 18:33:00,86.3,74.1,29.82,South,175,0.0,0.0,67,0.00,,,0.00,VWS V14.01,2013-08-29 23:33:00,
2013-08-29 18:39:00,86.1,73.9,29.82,South,175,2.0,3.0,67,0.00,,,0.00,VWS V14.01,2013-08-29 23:39:00,
2013-08-29 18:44:00,86.0,73.8,29.81,SSE,156,1.0,6.0,67,0.00,,,0.00,VWS V14.01,2013-08-29 23:44:00,
2013-08-29 18:49:00,85.9,73.2,29.81,South,178,4.0,6.0,66,0.00,,,0.00,VWS V14.01,2013-08-29 23:49:00,
2013-08-29 18:54:00,85.9,73.7,29.81,SSE,164,1.0,6.0,67,0.00,,,0.00,VWS V14.01,2013-08-29 23:54:00,
2013-08-29 18:59:00,85.8,73.1,29.81,SSE,165,0.0,6.0,66,0.00,,,0.00,VWS V14.01,2013-08-29 23:59:00,
2013-08-29 19:04:00,85.7,73.0,29.81,SSE,162,0.0,5.0,66,0.00,,,0.00,VWS V14.01,2013-08-30 00:04:00,
2013-08-29 19:09:00,85.5,72.4,29.80,SSE,162,0.0,5.0,65,0.00,,,0.00,VWS V14.01,2013-08-30 00:09:00,
2013-08-29 19:14:00,85.4,72.3,29.80,SE,145,1.0,5.0,65,0.00,,,0.00,VWS V14.01,2013-08-30 00:14:00,
2013-08-29 19:19:00,85.2,72.6,29.80,SE,145,0.0,5.0,66,0.00,,,0.00,VWS V14.01,2013-08-30 00:19:00,
2013-08-29 19:24:00,85.0,72.4,29.80,SE,144,2.0,5.0,66,0.00,,,0.00,VWS V14.01,2013-08-30 00:24:00,
2013-08-29 19:29:00,84.8,72.2,29.80,SE,133,0.0,5.0,66,0.00,,,0.00,VWS V14.01,2013-08-30 00:29:00,
2013-08-29 19:34:00,84.6,72.4,29.79,SE,133,0.0,0.0,67,0.00,,,0.00,VWS V14.01,2013-08-30 00:34:00,
2013-08-29 19:39:00,84.3,72.2,29.79,SE,133,0.0,2.0,67,0.00,,,0.00,VWS V14.01,2013-08-30 00:39:00,
2013-08-29 19:44:00,83.9,72.2,29.79,SE,133,0.0,2.0,68,0.00,,,0.00,VWS V14.01,2013-08-30 00:44:00,
2013-08-29 19:49:00,83.6,71.9,29.79,SE,133,0.0,2.0,68,0.00,,,0.00,VWS V14.01,2013-08-30 00:49:00,
2013-08-29 19:54:00,83.2,72.0,29.79,SE,133,1.0,3.0,69,0.00,,,0.00,VWS V14.01,2013-08-30 00:54:00,
2013-08-29 19:59:00,82.9,72.1,29.79,SE,133,0.0,3.0,70,0.00,,,0.00,VWS V14.01,2013-08-30 00:59:00,
2013-08-29 20:04:00,82.5,71.7,29.79,SE,134,0.0,0.0,70,0.00,,,0.00,VWS V14.01,2013-08-30 01:04:00,
2013-08-29 20:09:00,82.1,71.3,29.79,SE,134,0.0,0.0,70,0.00,,,0.00,VWS V14.01,2013-08-30 01:09:00,
2013-08-29 20:14:00,81.8,71.1,29.79,SE,134,0.0,0.0,70,0.00,,,0.00,VWS V14.01,2013-08-30 01:14:00,
2013-08-29 20:19:00,81.4,71.1,29.79,SE,133,0.0,0.0,71,0.00,,,0.00,VWS V14.01,2013-08-30 01:19:00,
2013-08-29 20:24:00,81.2,71.3,29.79,SE,133,0.0,3.0,72,0.00,,,0.00,VWS V14.01,2013-08-30 01:24:00,
2013-08-29 20:29:00,80.8,70.9,29.79,SE,134,0.0,3.0,72,0.00,,,0.00,VWS V14.01,2013-08-30 01:29:00,
2013-08-29 20:34:00,80.5,70.7,29.79,SE,134,0.0,0.0,72,0.00,,,0.00,VWS V14.01,2013-08-30 01:34:00,
2013-08-29 20:39:00,80.2,70.8,29.79,SE,134,0.0,0.0,73,0.00,,,0.00,VWS V14.01,2013-08-30 01:39:00,
2013-08-29 20:44:00,79.9,70.1,29.80,SE,134,0.0,4.0,72,0.00,,,0.00,VWS V14.01,2013-08-30 01:44:00,
2013-08-29 20:50:00,79.7,70.7,29.80,SE,133,0.0,4.0,74,0.00,,,0.00,VWS V14.01,2013-08-30 01:50:00,
2013-08-29 20:55:00,79.5,70.5,29.80,SE,134,0.0,4.0,74,0.00,,,0.00,VWS V14.01,2013-08-30 01:55:00,
2013-08-29 21:00:00,79.3,70.3,29.80,SE,134,0.0,4.0,74,0.00,,,0.00,VWS V14.01,2013-08-30 02:00:00,
2013-08-29 21:05:00,79.0,69.6,29.80,SE,134,0.0,0.0,73,0.00,,,0.00,VWS V14.01,2013-08-30 02:05:00,
2013-08-29 21:10:00,78.9,69.5,29.80,SE,134,0.0,0.0,73,0.00,,,0.00,VWS V14.01,2013-08-30 02:10:00,
2013-08-29 21:15:00,78.7,69.3,29.80,SE,134,0.0,0.0,73,0.00,,,0.00,VWS V14.01,2013-08-30 02:15:00,
2013-08-29 21:20:00,78.7,69.3,29.80,SE,134,0.0,0.0,73,0.00,,,0.00,VWS V14.01,2013-08-30 02:20:00,
2013-08-29 21:25:00,78.7,69.3,29.80,SE,134,0.0,0.0,73,0.00,,,0.00,VWS V14.01,2013-08-30 02:25:00,
2013-08-29 21:30:00,78.6,69.2,29.80,SE,134,0.0,0.0,73,0.00,,,0.00,VWS V14.01,2013-08-30 02:30:00,
2013-08-29 21:35:00,78.4,69.0,29.80,SE,134,0.0,0.0,73,0.00,,,0.00,VWS V14.01,2013-08-30 02:35:00,
2013-08-29 21:40:00,78.3,68.9,29.80,SE,134,0.0,0.0,73,0.00,,,0.00,VWS V14.01,2013-08-30 02:40:00,
2013-08-29 21:45:00,78.2,68.8,29.80,SE,134,0.0,0.0,73,0.00,,,0.00,VWS V14.01,2013-08-30 02:45:00,
2013-08-29 21:50:00,78.0,68.7,29.80,SE,134,0.0,0.0,73,0.00,,,0.00,VWS V14.01,2013-08-30 02:50:00,
2013-08-29 21:55:00,77.9,68.9,29.80,SE,134,0.0,0.0,74,0.00,,,0.00,VWS V14.01,2013-08-30 02:55:00,
2013-08-29 22:00:00,77.8,68.9,29.80,SE,134,0.0,0.0,74,0.00,,,0.00,VWS V14.01,2013-08-30 03:00:00,
2013-08-29 22:05:00,77.7,68.8,29.80,SE,134,0.0,0.0,74,0.00,,,0.00,VWS V14.01,2013-08-30 03:05:00,
2013-08-29 22:10:00,77.6,69.1,29.80,SE,134,0.0,0.0,75,0.00,,,0.00,VWS V14.01,2013-08-30 03:10:00,
2013-08-29 22:15:00,77.5,68.6,29.80,SE,134,0.0,1.0,74,0.00,,,0.00,VWS V14.01,2013-08-30 03:15:00,
2013-08-29 22:20:00,77.5,69.3,29.80,SE,134,0.0,1.0,76,0.00,,,0.00,VWS V14.01,2013-08-30 03:20:00,
2013-08-29 22:25:00,77.4,68.5,29.80,SE,134,0.0,1.0,74,0.00,,,0.00,VWS V14.01,2013-08-30 03:25:00,
2013-08-29 22:30:00,77.3,68.4,29.80,SE,134,0.0,1.0,74,0.00,,,0.00,VWS V14.01,2013-08-30 03:30:00,
2013-08-29 22:35:00,77.4,68.5,29.80,SE,135,0.0,0.0,74,0.00,,,0.00,VWS V14.01,2013-08-30 03:35:00,
2013-08-29 22:40:00,77.4,68.5,29.80,SE,134,0.0,0.0,74,0.00,,,0.00,VWS V14.01,2013-08-30 03:40:00,
2013-08-29 22:45:00,77.3,68.4,29.80,SE,134,0.0,0.0,74,0.00,,,0.00,VWS V14.01,2013-08-30 03:45:00,
2013-08-29 22:50:00,77.3,68.4,29.80,SE,134,0.0,0.0,74,0.00,,,0.00,VWS V14.01,2013-08-30 03:50:00,
2013-08-29 22:55:00,77.3,68.4,29.80,SE,135,0.0,0.0,74,0.00,,,0.00,VWS V14.01,2013-08-30 03:55:00,
2013-08-29 23:00:00,77.2,68.3,29.79,SE,134,0.0,0.0,74,0.00,,,0.00,VWS V14.01,2013-08-30 04:00:00,
2013-08-29 23:01:00,77.2,68.3,29.79,SE,134,0.0,0.0,74,0.00,,,0.00,VWS V14.01,2013-08-30 04:01:00,
2013-08-29 23:02:00,77.2,68.3,29.79,SE,134,0.0,0.0,74,0.00,,,0.00,VWS V14.01,2013-08-30 04:02:00,
2013-08-29 23:03:00,77.3,68.4,29.79,SE,134,0.0,0.0,74,0.00,,,0.00,VWS V14.01,2013-08-30 04:03:00,
2013-08-29 23:04:00,77.2,68.3,29.79,SE,134,0.0,0.0,74,0.00,,,0.00,VWS V14.01,2013-08-30 04:04:00,
2013-08-29 23:09:00,77.3,68.4,29.79,SE,134,0.0,0.0,74,0.00,,,0.00,VWS V14.01,2013-08-30 04:09:00,
2013-08-29 23:14:00,77.4,68.5,29.79,SE,134,0.0,4.0,74,0.00,,,0.00,VWS V14.01,2013-08-30 04:14:00,
2013-08-29 23:19:00,77.4,68.5,29.80,SE,135,0.0,4.0,74,0.00,,,0.00,VWS V14.01,2013-08-30 04:19:00,
2013-08-29 23:24:00,77.5,68.6,29.79,SE,134,0.0,4.0,74,0.00,,,0.00,VWS V14.01,2013-08-30 04:24:00,
2013-08-29 23:29:00,77.6,68.3,29.79,SE,134,0.0,4.0,73,0.00,,,0.00,VWS V14.01,2013-08-30 04:29:00,
2013-08-29 23:34:00,77.7,68.4,29.79,SE,135,0.0,4.0,73,0.00,,,0.00,VWS V14.01,2013-08-30 04:34:00,
2013-08-29 23:39:00,77.7,68.4,29.79,SE,135,0.0,4.0,73,0.00,,,0.00,VWS V14.01,2013-08-30 04:39:00,
2013-08-29 23:44:00,77.8,68.5,29.79,SE,136,0.0,4.0,73,0.00,,,0.00,VWS V14.01,2013-08-30 04:44:00,
2013-08-29 23:49:00,77.9,68.6,29.79,South,173,0.0,6.0,73,0.00,,,0.00,VWS V14.01,2013-08-30 04:49:00,
2013-08-29 23:54:00,78.0,68.7,29.79,SSE,164,5.0,6.0,73,0.00,,,0.00,VWS V14.01,2013-08-30 04:54:00,
2013-08-29 23:59:00,78.1,68.8,29.79,SSE,168,3.0,6.0,73,0.00,,,0.00,VWS V14.01,2013-08-30 04:59:00,